Time,B instrument,Bx,By,Bz,sigma B,Ion instrument,Status,Tp_par,Tp_perp,carrot,r_sun,clat,clong,earth_he_angle,n_p,vp_x,vp_y,vp_z,vth_p_par,vth_p_perp
1981-07-14 00:00:26,1,-10.0333,5.11667,-0.0666667,0.25,1,1,35432.7,35468.0,1710,0.63633204,6.1287489,199.83662,86.336624,10.2809,322.275,7.72284,-1.98825,24.1858,24.1978
1981-07-14 00:01:47,1,-10.32,4.62,-0.96,0.36,1,1,38011.0,36174.5,1710,0.6363399,6.1286707,199.82149,86.337112,10.877,320.289,4.23256,8.17393,25.0503,24.4376
1981-07-14 00:03:08,1,-10.5,4.41667,0.0666667,0.640529,1,1,42905.9,39331.3,1710,0.63635564,6.1285162,199.81076,86.338104,11.7871,321.438,3.32431,10.7478,26.6144,25.4816
1981-07-14 00:04:29,1,-10.32,4.56,0.8,0.252982,1,1,47951.8,40883.7,1710,0.63636351,6.128438,199.79955,86.338608,12.1057,323.521,3.82769,11.4839,28.1359,25.9796
1981-07-14 00:05:50,1,-10.4667,5.2,0.533333,0.413656,1,1,47457.7,42689.5,1710,0.63637137,6.1283607,199.78831,86.339096,12.6177,323.363,-2.98903,18.4697,27.9905,26.5472
1981-07-14 00:07:11,1,-10.74,3.78,1.72,0.376298,1,1,37117.8,37017.6,1710,0.63638711,6.1282053,199.7776,86.340103,12.2392,326.429,-2.79214,21.9912,24.7542,24.7208
1981-07-14 00:08:32,1,-10.72,4.34,1.36,0.293939,1,1,45723.1,39702.3,1710,0.63639498,6.1281281,199.76637,86.340591,11.9959,326.464,-2.21728,20.5591,27.4743,25.6015
1981-07-14 00:09:53,1,-10.84,3.82,1.76,0.361109,1,1,40558.8,35115.4,1710,0.63640285,6.1280499,199.75125,86.341095,11.8672,325.26,-4.99613,15.2431,25.8762,24.0772
1981-07-14 00:11:14,1,-11.18,3.74,-0.08,0.928224,1,1,46785.0,35552.7,1710,0.63641858,6.1278954,199.74052,86.342087,12.1984,328.759,-1.19565,12.8319,27.7915,24.2267
1981-07-14 00:12:35,1,-10.96,4.26,-1.28,0.471593,1,1,37860.0,35273.7,1710,0.63642645,6.1278172,199.72931,86.34259,11.8873,329.041,0.328038,3.87133,25.0005,24.1314
1981-07-14 00:13:56,1,-10.64,4.14,-2.16,0.42332,1,1,38894.4,39764.0,1710,0.63643432,6.1277399,199.71808,86.343079,12.0002,325.636,-1.03072,15.7838,25.3397,25.6214
1981-07-14 00:15:17,1,-11.42,3.98,-0.28,0.35327,1,1,42740.0,35799.9,1710,0.63645011,6.1275845,199.70735,86.34407,11.7992,325.589,-9.31582,12.0307,26.5629,24.3108
1981-07-14 00:16:38,1,-11.56,2.7,-0.28,0.603324,1,1,43523.4,36023.2,1710,0.63645798,6.1275072,199.69614,86.344574,12.197,329.273,-0.282031,10.3602,26.8052,24.3865
1981-07-14 00:17:59,1,-11.0,3.46,-1.64,0.967884,1,1,41677.1,35720.1,1710,0.63646585,6.12743,199.681,86.345062,12.1495,327.216,-1.76082,8.77397,26.2305,24.2837
1981-07-14 00:19:20,1,-11.06,3.5,-1.24,0.311127,1,1,42523.5,36357.3,1710,0.63648158,6.1272745,199.67029,86.346069,12.4767,326.208,-1.64943,15.1333,26.4955,24.4993
1981-07-14 00:20:41,1,-11.48,3.14,-0.6,0.126491,1,1,40141.6,38806.5,1710,0.63648945,6.1271973,199.65906,86.346558,11.7862,326.052,-6.38914,12.0443,25.7428,25.3111
1981-07-14 00:22:02,1,-11.52,2.76,-1.32,0.222711,1,1,47605.6,40109.6,1710,0.63650519,6.1270418,199.64833,86.347549,13.0078,325.961,-6.56906,19.5361,28.0341,25.7325
1981-07-14 00:23:23,1,-11.44,2.14,0.84,0.437264,1,1,43793.7,35793.1,1710,0.63651305,6.1269636,199.63712,86.348053,12.3125,327.761,-8.41122,26.7079,26.8883,24.3085
1981-07-14 00:24:44,1,-11.7333,1.66667,1.93333,0.258199,1,1,46564.3,34659.1,1710,0.63652092,6.1268864,199.62199,86.348557,12.3508,326.786,-7.49765,24.3058,27.7258,23.9203
1981-07-14 00:27:26,1,-11.6333,1.65,1.23333,0.383333,1,1,43323.5,37645.5,1710,0.63654453,6.1266537,199.60004,86.350037,12.7267,326.281,-8.87048,18.59,26.7436,24.9296
1981-07-14 00:28:47,1,-11.6333,1.73333,1.13333,0.341565,1,1,42575.2,36435.1,1710,0.63655239,6.1265764,199.58882,86.35054,11.4499,324.675,-8.36139,22.2475,26.5116,24.5255
1981-07-14 00:30:08,1,-11.8333,1.78333,1.43333,0.368556,1,1,41060.9,35427.1,1710,0.63656819,6.126421,199.57809,86.351532,11.5886,324.408,-6.14069,15.8462,26.0359,24.1839
1981-07-14 00:31:29,1,-11.7667,1.88333,0.333333,0.492443,1,1,38976.8,37213.5,1710,0.63657606,6.1263437,199.56688,86.352036,11.6833,324.924,-3.85528,23.0484,25.3665,24.7861
1981-07-14 00:32:50,1,-11.7333,1.88333,1.83333,0.905078,1,1,37914.5,36958.6,1710,0.63658392,6.1262655,199.55174,86.352524,11.5568,325.444,-9.96483,31.5903,25.0185,24.7011
1981-07-14 00:34:11,1,-11.2,-0.0166667,4.2,0.425898,1,1,48181.6,41133.0,1710,0.63659966,6.126111,199.54102,86.353516,11.2948,324.583,-11.1286,31.1477,28.2032,26.0587
1981-07-14 00:35:32,1,-11.1833,-0.316667,4.33333,0.297209,1,1,53968.7,38804.8,1710,0.63660753,6.1260328,199.5298,86.354019,11.591,327.934,-8.6811,34.8429,29.8489,25.3105
1981-07-14 00:36:53,1,-10.0667,0.05,5.8,0.226691,1,1,49979.9,40506.4,1710,0.6366154,6.1259556,199.51859,86.354523,11.429,324.365,-6.95642,28.7225,28.7247,25.8595
1981-07-14 00:38:14,1,-11.0667,0.533333,4.26667,0.326599,1,1,54910.5,42003.3,1710,0.63663113,6.1258001,199.50786,86.355515,12.1621,324.861,-6.24058,27.259,30.1083,26.333
1981-07-14 00:39:35,1,-11.35,1.16667,3.53333,0.200693,1,1,42447.9,40206.4,1710,0.636639,6.1257229,199.49663,86.356003,10.866,323.663,-9.77225,27.9598,26.4719,25.7635
1981-07-14 00:40:56,1,-11.1333,0.7,3.6,0.478423,1,1,45771.0,46323.8,1710,0.63664687,6.1256447,199.48151,86.356506,12.5437,323.557,9.21875,16.3999,27.4886,27.6541
1981-07-14 00:42:17,1,-11.25,3.73333,1.46667,1.02808,1,1,63213.7,45716.8,1710,0.6366626,6.1254902,199.47078,86.357498,12.9109,317.547,11.5091,18.3124,32.3045,27.4723
1981-07-14 00:43:38,1,-10.0,6.18333,-0.666667,0.535672,1,1,53245.9,47185.7,1710,0.63667047,6.125412,199.45956,86.358002,12.2814,317.427,9.43326,13.7678,29.6484,27.9102
1981-07-14 00:44:59,1,-9.86667,6.31667,-0.866667,0.386221,1,1,63270.1,45718.1,1710,0.6366784,6.1253347,199.44833,86.35849,12.7426,321.381,8.23702,13.8765,32.3189,27.4727
1981-07-14 00:46:20,1,-9.45,7.03333,-1.13333,0.351584,1,1,62150.6,41162.0,1710,0.63669413,6.1251793,199.43761,86.359482,12.607,325.235,9.88973,10.7342,32.0317,26.0679
1981-07-14 00:47:41,1,-9.3,7.68333,-1.2,0.47052,1,1,64750.1,51674.4,1710,0.636702,6.125102,199.42249,86.359985,12.8025,320.058,10.7837,10.9577,32.6948,29.2076
1981-07-14 00:49:02,1,-9.1,7.35,-1.5,0.330404,1,1,52499.5,47266.0,1710,0.63671774,6.1249466,199.41176,86.360977,12.7731,322.372,10.4459,10.8115,29.4398,27.934
1981-07-14 00:50:23,1,-9.11667,7.7,-1.7,0.466964,1,1,44959.4,44991.1,1710,0.6367256,6.1248693,199.40054,86.361481,11.867,324.766,12.7614,10.4223,27.2438,27.2534
1981-07-14 00:51:44,1,-8.21667,8.46667,-2.83333,0.468152,1,1,55105.9,41697.6,1710,0.63673347,6.1247921,199.38931,86.361969,11.8026,331.234,17.808,14.833,30.1618,26.2369
1981-07-14 00:53:05,1,-8.71667,8.26667,-1.53333,0.509084,1,1,47656.5,46697.6,1710,0.63674921,6.1246367,199.37859,86.362961,12.703,323.265,7.4872,7.84235,28.0491,27.7655
1981-07-14 00:54:26,1,-9.5,6.7,-2.53333,0.570575,1,1,64207.7,42282.0,1710,0.63675708,6.1245594,199.36737,86.363464,12.4933,325.691,12.6422,14.6658,32.5575,26.4202
1981-07-14 00:55:47,1,-9.08333,7.86667,-1.73333,0.715891,1,1,41619.8,34903.1,1710,0.63676494,6.1244812,199.35225,86.363968,11.8883,324.447,10.5733,12.5155,26.2125,24.0043
1981-07-14 00:57:08,1,-9.5,7.0,-2.06667,0.576387,1,1,34745.1,38811.5,1710,0.63678068,6.1243267,199.34152,86.36496,12.0958,324.09,11.4041,14.5217,23.95,25.3127
1981-07-14 00:58:29,1,-9.78333,7.03333,-1.53333,0.590903,1,1,57734.4,50255.9,1710,0.63678855,6.1242485,199.33029,86.365448,13.255,321.06,12.2811,12.885,30.8727,28.8039
1981-07-14 00:59:50,1,-9.18333,7.6,-0.933333,0.356293,1,1,62324.0,50313.8,1710,0.63679647,6.1241713,199.31908,86.365952,12.3935,321.207,19.6921,15.2384,32.0764,28.8205
1981-07-14 01:01:11,1,-8.76667,7.9,-0.466667,0.333333,1,1,59210.6,49677.9,1710,0.63681221,6.1240158,199.30835,86.366943,12.2318,318.983,12.7274,10.9988,31.2649,28.6378
1981-07-14 01:02:32,1,-9.21667,7.45,-1.1,0.383695,1,1,60468.9,42491.7,1710,0.63682008,6.1239386,199.29712,86.367432,12.6388,322.992,15.1634,14.9236,31.5954,26.4856
1981-07-14 01:03:53,1,-9.06667,7.51667,-1.36667,0.623832,1,1,54974.8,45440.7,1710,0.63682795,6.1238604,199.282,86.367935,12.8486,322.151,13.3496,11.2449,30.1259,27.3893
1981-07-14 01:05:14,1,-8.7,7.9,-1.93333,0.558768,1,1,62817.0,43516.0,1710,0.63684362,6.1237059,199.27127,86.368927,13.4374,316.538,15.2395,15.5922,32.203,26.8029
1981-07-14 01:06:35,1,-9.21667,6.7,-0.533333,0.712,1,1,61838.9,50670.9,1710,0.63685149,6.1236277,199.26004,86.369415,14.5563,312.248,10.1662,12.4898,31.9513,28.9226
1981-07-14 01:07:56,1,-10.0333,4.81667,-1.43333,0.236291,1,1,35381.4,37542.4,1710,0.63685942,6.1235504,199.24883,86.369919,10.9321,321.634,7.0247,12.353,24.1683,24.8954
1981-07-14 01:09:17,1,-10.6667,6.25,-1.0,0.30777,1,1,39543.6,38029.5,1710,0.63687509,6.123395,199.2381,86.370911,11.5561,319.563,7.38457,14.6016,25.5503,25.0564
1981-07-14 01:10:38,1,-10.5667,5.83333,-1.66667,0.223607,1,1,44713.9,41326.5,1710,0.63688296,6.1233177,199.22296,86.371399,12.3887,319.128,3.12101,12.6518,27.1693,26.12
1981-07-14 01:11:59,1,-10.7,5.52,-2.0,0.534416,1,1,57963.8,51005.1,1710,0.63689083,6.1232395,199.21175,86.371902,13.7055,318.385,17.6399,11.8228,30.934,29.0178
1981-07-14 01:13:20,1,-9.01667,7.31667,-1.76667,0.334166,1,1,42808.3,40408.5,1710,0.63690656,6.1230841,199.20102,86.372894,11.6668,324.925,16.3248,13.7798,26.5841,25.8282
1981-07-14 01:14:41,1,-10.0,7.16667,-2.06667,0.352767,1,1,48926.0,42934.4,1710,0.63691443,6.1230068,199.18979,86.373383,12.5298,324.015,15.0905,13.8302,28.4202,26.6232
1981-07-14 01:16:02,1,-9.73333,7.58333,-1.76667,0.364005,1,1,46576.8,37820.7,1710,0.63693017,6.1228514,199.17906,86.374374,11.982,323.158,14.2528,14.257,27.7295,24.9875
1981-07-14 01:17:23,1,-9.81667,7.75,-1.46667,0.310018,1,1,52531.3,39124.9,1710,0.63693804,6.1227741,199.16783,86.374863,12.1135,321.506,17.1923,15.5589,29.4488,25.4147
1981-07-14 01:18:44,1,-8.8,8.0,-1.73333,0.467856,1,1,44675.5,39346.9,1710,0.6369459,6.1226959,199.15271,86.375366,11.5929,325.725,13.9796,14.8611,27.1577,25.4867
1981-07-14 01:20:05,1,-9.36667,8.26667,-1.73333,0.282843,1,1,84815.8,42418.6,1710,0.63696164,6.1225414,199.14198,86.376358,15.0916,318.004,19.9147,12.1927,37.4193,26.4628
1981-07-14 01:21:26,1,-8.83333,7.7,-1.6,0.268742,1,1,54783.5,40324.3,1710,0.63696951,6.1224632,199.13075,86.376846,12.2787,321.673,19.2893,11.0151,30.0734,25.8013
1981-07-14 01:22:47,1,-8.81667,8.18333,-1.53333,0.297209,1,1,73989.4,50908.1,1710,0.63697737,6.122386,199.11954,86.37735,14.5138,318.77,21.71,12.3584,34.9496,28.9902
1981-07-14 01:24:08,1,-8.4,7.95,-1.46667,0.348409,1,1,82176.6,44462.9,1710,0.63699311,6.1222305,199.10881,86.378342,14.7146,316.677,20.0876,12.6201,36.8326,27.093
1981-07-14 01:25:29,1,-8.36,7.66,-1.52,0.377359,1,1,81278.1,49722.9,1710,0.63700098,6.1221533,199.09758,86.37883,15.6047,319.122,21.5774,12.5787,36.6306,28.6508
1981-07-14 01:26:50,1,-8.16667,8.13333,-1.23333,0.439697,1,1,44581.5,36882.5,1710,0.63700885,6.1220751,199.08246,86.379333,11.6494,322.447,15.6101,17.761,27.1291,24.6756
1981-07-14 01:28:11,1,-9.44,8.5,-0.96,0.262298,1,1,50119.0,39778.1,1710,0.63702458,6.1219196,199.07173,86.380325,12.1412,320.242,13.5211,17.7282,28.7647,25.6259
1981-07-14 01:29:32,1,-9.11667,7.96667,-0.533333,0.243242,1,1,42785.7,40722.4,1710,0.63703245,6.1218424,199.0605,86.380814,11.4174,318.768,19.3726,19.5129,26.5771,25.9283
1981-07-14 01:30:53,1,-9.21667,7.25,0.0333333,0.453995,1,1,63798.7,45386.3,1710,0.63704032,6.1217642,199.04929,86.381317,13.4088,315.989,19.1595,18.3943,32.4537,27.3729
1981-07-14 01:32:14,1,-9.31667,7.63333,0.133333,0.460977,1,1,71887.1,47165.2,1710,0.63705605,6.1216097,199.03854,86.382294,13.696,317.513,20.3177,19.0274,34.4495,27.9041
1981-07-14 01:42:06,-1,nan,nan,nan,nan,1,4,nan,nan,1710,0.63713473,6.1208334,198.94975,86.387253,nan,nan,nan,nan,nan,nan
1981-07-14 01:43:27,1,-10.2,2.2,2.68,0.435431,1,1,55775.5,50835.1,1710,0.6371426,6.1207552,198.93854,86.387756,15.5465,293.656,6.69554,36.1384,30.3445,28.9694
1981-07-14 01:44:23,1,-10.78,2.56,1.16,0.338231,1,1,43667.0,46030.1,1711,0.63697797,6.0849934,198.93701,86.394043,14.4577,292.232,7.307,22.0494,26.8494,27.5663
1981-07-14 01:44:48,1,-10.88,2.4,1.0,0.271293,1,1,41285.7,43507.2,1710,0.63715047,6.1206779,198.92731,86.388245,13.41,291.966,6.42873,26.5379,26.107,26.8002
1981-07-14 01:45:44,1,-10.4333,2.71667,0.9,0.289156,1,1,64109.4,47939.6,1710,0.63715833,6.1206007,198.92,86.388748,16.7072,290.87,10.5621,18.9542,32.5326,28.1323
1981-07-14 01:47:05,1,-10.225,3.45,-0.3,0.290474,1,1,38722.4,52038.6,1710,0.63717407,6.1204453,198.90926,86.389725,15.1675,292.405,13.0461,18.349,25.2836,29.3103
1981-07-14 01:48:26,1,-10.0333,3.33333,-0.666667,0.360555,1,1,48969.1,50302.1,1710,0.63718194,6.1203671,198.89804,86.390228,16.8904,289.921,4.89355,11.6959,28.4328,28.8172
1981-07-14 01:49:47,1,-10.08,1.7,-2.44,0.56921,1,1,47739.4,52279.4,1710,0.63718981,6.1202898,198.8829,86.390717,16.7138,292.722,2.98995,12.2155,28.0735,29.3781
1981-07-14 01:51:08,1,-10.25,1.61667,-1.53333,0.222361,1,1,55321.8,50889.8,1710,0.63720554,6.1201344,198.87218,86.391708,16.4508,293.001,2.87562,15.4486,30.2208,28.985
1981-07-14 01:52:29,1,-10.25,1.4,-0.8,0.287228,1,1,37561.3,54242.4,1710,0.63721341,6.1200571,198.86096,86.392212,14.8406,291.307,0.0245826,10.532,24.9017,29.9245
1981-07-14 01:53:50,1,-10.36,1.12,-1.8,0.517687,1,1,31977.8,38510.9,1710,0.63722128,6.1199789,198.84973,86.3927,12.0873,317.738,4.79154,20.1591,22.9764,25.2145
1981-07-14 01:55:11,1,-10.82,5.66,-0.4,0.45607,1,1,45433.8,35340.9,1710,0.63723701,6.1198244,198.839,86.393692,13.111,315.302,4.89928,18.2722,27.3872,24.1544
1981-07-14 01:56:32,1,-10.9,4.9,-0.72,0.256125,1,1,42076.8,35645.3,1710,0.63724488,6.1197462,198.82388,86.394196,12.9652,317.872,2.00734,17.6903,26.356,24.2582
1981-07-14 01:57:53,1,-11.42,4.32,-0.92,0.329848,1,1,40321.3,38005.2,1710,0.63725275,6.119669,198.81265,86.394684,12.8093,317.142,1.63492,20.2325,25.8003,25.0484
1981-07-14 01:59:14,1,-11.38,4.5,-0.64,0.328634,1,1,35194.0,36766.5,1710,0.63726848,6.1195135,198.80193,86.395676,12.2586,316.238,4.14515,17.8543,24.1042,24.6368
1981-07-14 02:00:35,1,-11.06,4.72,-0.92,0.271293,1,1,40221.3,35530.2,1710,0.63727635,6.1194363,198.79071,86.396179,12.4112,316.805,5.65307,19.1346,25.7683,24.219
1981-07-14 02:01:56,1,-11.14,5.26,-0.8,0.304631,1,1,36575.3,37490.7,1710,0.63728422,6.1193581,198.77948,86.396667,12.7895,317.434,7.88281,20.5895,24.5726,24.8782
1981-07-14 02:03:17,1,-10.6,6.12,-0.16,0.328634,1,1,34225.9,36241.7,1710,0.6372999,6.1192026,198.76875,86.397659,12.3854,317.448,5.94843,21.4864,23.7703,24.4603
1981-07-14 02:04:38,1,-11.14,5.58,-0.48,0.183303,1,1,34265.0,32667.1,1710,0.63730776,6.1191254,198.75362,86.398148,11.6487,316.867,4.19973,21.608,23.7839,23.2227
1981-07-14 02:05:59,1,-11.06,5.54,-0.16,0.243311,1,1,35733.8,32982.1,1710,0.63731563,6.1190472,198.74239,86.398636,12.3824,316.07,2.37667,22.0307,24.2883,23.3344
1981-07-14 02:07:20,1,-11.0833,4.96667,-0.4,0.289156,1,1,33574.8,33529.8,1710,0.63733137,6.1188917,198.73166,86.399628,12.0852,315.387,0.694354,23.2104,23.5432,23.5274
1981-07-14 02:08:41,1,-11.18,4.86,0.0,0.219089,1,1,35691.9,36742.4,1710,0.63733923,6.1188145,198.72043,86.400116,12.8983,315.907,2.70998,24.3007,24.2741,24.6287
1981-07-14 02:10:02,1,-11.3,4.5,-0.433333,0.368179,1,1,33096.9,32509.6,1710,0.63735491,6.118659,198.7097,86.401108,11.8488,316.51,4.06605,22.9291,23.375,23.1667
1981-07-14 02:11:23,1,-10.84,5.48,-0.08,0.305941,1,1,37177.5,35011.2,1710,0.63736278,6.1185808,198.69456,86.401596,12.5396,317.077,8.81819,23.5324,24.7741,24.0415
1981-07-14 02:12:44,1,-10.8,6.0,0.133333,0.372678,1,1,35255.7,36406.7,1710,0.63737065,6.1185036,198.68335,86.4021,12.0684,315.824,5.61408,22.9501,24.1253,24.5159
1981-07-14 02:14:05,1,-10.7,5.8,0.0,1.77636e-15,1,1,36404.6,35153.0,1710,0.63738638,6.1183481,198.67261,86.403076,12.171,316.225,7.73431,23.0353,24.5152,24.0901
1981-07-14 02:15:26,1,-10.78,6.14,0.8,0.236643,1,1,31812.0,33245.0,1710,0.63739425,6.1182699,198.66139,86.40358,11.3834,314.954,6.90357,22.7355,22.9168,23.4272
1981-07-14 02:16:47,1,-10.7333,5.86667,0.666667,0.341565,1,1,40369.5,33548.8,1710,0.63740212,6.1181927,198.65016,86.404068,12.2122,316.373,8.83953,24.1969,25.8157,23.534
1981-07-14 02:18:08,1,-10.7333,6.31667,0.666667,0.390512,1,1,34847.1,36265.9,1710,0.63741779,6.1180372,198.63943,86.40506,12.5148,315.895,8.37047,24.2599,23.9851,24.4685
1981-07-14 02:19:29,1,-10.7,6.53333,0.666667,0.401386,1,1,34779.5,34984.9,1710,0.63742566,6.117959,198.6243,86.405548,12.1271,317.311,9.48585,25.0992,23.9618,24.0324
1981-07-14 02:20:50,1,-10.7,6.7,0.8,1.77982e-15,1,1,34913.4,34928.4,1710,0.63743353,6.1178818,198.61308,86.406052,11.8062,316.345,9.07414,24.2344,24.0079,24.013
1981-07-14 02:22:11,1,-10.7,6.7,0.8,1.77982e-15,1,1,35385.2,36594.7,1710,0.63744926,6.1177263,198.60234,86.407028,12.3546,315.501,8.18886,24.1224,24.1696,24.5792
1981-07-14 02:23:32,1,-10.5667,6.28333,0.666667,0.33541,1,1,31773.9,34578.1,1710,0.63745713,6.1176481,198.59113,86.407532,11.6508,315.693,8.39911,25.6877,22.903,23.8923
1981-07-14 02:24:53,1,-10.9,6.2,0.4,0.4,1,1,37394.2,34425.0,1710,0.637465,6.1175709,198.5799,86.40802,11.9542,315.997,10.3197,24.562,24.8462,23.8394
1981-07-14 02:26:14,1,-10.7333,6.45,0.8,0.291071,1,1,37289.9,34524.5,1710,0.63748068,6.1174154,198.56917,86.409012,11.7079,315.308,10.7781,25.0195,24.8115,23.8738
1981-07-14 02:27:35,1,-10.7,6.34,0.64,0.410853,1,1,31539.8,35417.7,1710,0.63748854,6.1173372,198.55403,86.4095,11.3607,315.109,9.87903,24.2648,22.8185,24.1807
1981-07-14 02:28:56,1,-10.8333,6.21667,0.8,0.153659,1,1,28383.7,36756.1,1710,0.63749641,6.11726,198.5428,86.409988,11.5132,316.371,8.39951,24.2749,21.6467,24.6333
1981-07-14 02:30:17,1,-10.7667,6.23333,0.666667,0.355903,1,1,32140.2,31727.1,1710,0.63751215,6.1171045,198.53207,86.41098,12.3158,317.197,7.13991,23.048,23.0347,22.8862
1981-07-14 02:31:38,1,-11.7,4.9,-0.2,1.98622e-15,1,1,33868.0,32595.9,1710,0.63752002,6.1170273,198.52084,86.411469,11.9202,317.044,5.68939,23.9124,23.6457,23.1974
1981-07-14 02:32:59,1,-11.4,4.7,-0.2,0.310913,1,1,33696.1,34171.6,1710,0.63752788,6.1169491,198.50963,86.411972,12.3402,317.226,7.28926,23.4634,23.5856,23.7515
1981-07-14 02:34:20,1,-11.5,4.76,-0.24,0.254558,1,1,30264.7,34434.1,1710,0.63754362,6.1167936,198.49498,86.412949,11.5025,315.626,8.32616,24.4011,22.3525,23.8425
1981-07-14 02:35:41,1,-11.0333,5.36667,0.0,0.233333,1,1,35048.5,35365.3,1710,0.63755149,6.1167164,198.48376,86.413452,12.1758,316.744,8.25945,24.4594,24.0543,24.1628
1981-07-14 02:37:02,1,-11.0333,5.63333,0.133333,0.341565,1,1,33412.2,34342.3,1710,0.63756716,6.1165609,198.47302,86.414429,11.8363,315.527,7.95537,23.1909,23.4861,23.8107
1981-07-14 02:38:23,1,-11.1,5.6,0.0,8.88178e-16,1,1,39321.4,37822.4,1710,0.63757503,6.1164827,198.46181,86.414932,12.2317,315.13,5.93639,23.4774,25.4784,24.9881
1981-07-14 02:39:44,1,-10.92,5.44,0.0,0.228035,1,1,34277.9,32922.5,1710,0.6375829,6.1164055,198.45058,86.415421,12.2049,314.57,4.93016,22.477,23.7884,23.3133
1981-07-14 02:41:05,1,-11.3,5.1,-0.16,0.195959,1,1,34040.0,35751.7,1710,0.63759863,6.11625,198.43985,86.416412,11.8211,314.094,6.95542,21.9181,23.7057,24.2944
1981-07-14 02:42:26,1,-11.22,5.4,-0.48,0.31496,1,1,34237.4,34258.3,1710,0.6376065,6.1161718,198.42471,86.416901,11.965,313.47,5.07444,22.3295,23.7743,23.7816
1981-07-14 02:43:47,1,-11.22,5.14,-0.4,0.178885,1,1,34416.8,36305.0,1710,0.63761437,6.1160946,198.4135,86.417404,12.0809,311.496,4.08076,22.1541,23.8365,24.4817
1981-07-14 02:45:08,1,-11.42,4.7,-0.36,0.32249,1,1,33583.2,35989.7,1710,0.63763005,6.1159391,198.40276,86.418381,11.9989,311.933,4.49096,24.7049,23.5461,24.3751
1981-07-14 02:46:29,1,-11.46,4.68,0.32,0.549181,1,1,36947.8,37458.2,1710,0.63763791,6.1158609,198.39154,86.418884,11.514,312.286,4.31972,22.0991,24.6975,24.8675
1981-07-14 02:47:50,1,-11.62,4.78,0.12,0.238328,1,1,34096.2,33908.3,1710,0.63764578,6.1157837,198.38031,86.419373,11.5947,313.071,2.79083,21.4676,23.7252,23.6598
1981-07-14 02:49:11,1,-11.58,4.56,-0.2,0.178885,1,1,31402.6,35431.9,1710,0.63766152,6.1156282,198.36958,86.420364,11.8401,311.936,4.6512,20.0717,22.7688,24.1855
1981-07-14 02:50:32,1,-11.66,4.52,-0.52,0.183303,1,1,30040.8,32924.4,1710,0.63766938,6.11555,198.35445,86.420853,11.845,312.852,2.41147,20.5191,22.2697,23.314
1981-07-14 02:51:53,1,-11.86,4.3,-0.44,0.35327,1,1,30405.0,33885.0,1710,0.63767725,6.1154728,198.34322,86.421341,11.9724,312.692,4.7756,22.3079,22.4043,23.6517
1981-07-14 02:53:14,1,-11.8,4.44,-0.36,0.284253,1,1,30329.2,35778.0,1710,0.63769293,6.1153173,198.33249,86.422333,11.7068,312.835,2.78363,22.021,22.3763,24.3033
1981-07-14 02:54:35,1,-11.86,4.1,-0.6,0.257682,1,1,29421.5,34211.3,1710,0.6377008,6.1152391,198.32126,86.422821,11.2348,310.49,1.9649,23.9599,22.0389,23.7653
1981-07-14 02:55:56,1,-11.78,3.96,-0.36,0.224499,1,1,31586.1,32552.8,1710,0.63770866,6.1151619,198.31004,86.423325,11.6095,313.007,3.91295,24.0857,22.8353,23.1821
1981-07-14 02:57:17,1,-11.74,4.48,-0.2,0.219089,1,1,30604.7,33122.6,1710,0.6377244,6.1150064,198.29539,86.424301,11.8674,314.07,4.46218,23.7727,22.4777,23.3841
1981-07-14 02:58:38,1,-11.88,4.58,-0.2,0.243311,1,1,31467.5,29953.4,1710,0.63773227,6.1149282,198.28418,86.424805,11.253,313.597,3.8807,26.0526,22.7923,22.2373
1981-07-14 02:59:59,1,-11.66,4.84,0.12,0.215407,1,1,29615.9,33345.1,1710,0.63774014,6.114851,198.27295,86.425293,11.8215,314.556,5.93876,24.3041,22.1116,23.4625
1981-07-14 03:01:20,1,-11.7,4.9,-0.12,0.16,1,1,29924.0,34187.4,1710,0.63775581,6.1146955,198.26222,86.426285,12.0371,314.059,5.37448,24.7356,22.2263,23.757
1981-07-14 03:02:41,1,-11.7,4.9,0.12,0.16,1,1,31350.9,32370.3,1710,0.63776368,6.1146183,198.25099,86.426773,11.8959,314.47,6.43023,24.1391,22.7501,23.117
1981-07-14 03:04:02,1,-11.48,5.1,0.0,0.337046,1,1,32737.9,32455.6,1710,0.63777941,6.1144629,198.24026,86.427765,11.8577,313.329,6.53182,24.0846,23.2479,23.1474
1981-07-14 03:05:23,1,-11.46,5.02,-0.32,0.24,1,1,33770.0,35917.5,1710,0.63778722,6.1143847,198.22513,86.428253,11.481,313.952,7.90059,23.8315,23.6115,24.3507
1981-07-14 03:06:44,1,-11.42,5.34,-0.08,0.271293,1,1,30927.3,32636.7,1710,0.63779509,6.1143074,198.2139,86.428741,11.5554,314.31,7.29772,24.0337,22.5958,23.2119
1981-07-14 03:08:05,1,-11.58,5.26,0.08,0.324962,1,1,33707.5,33185.5,1710,0.63781083,6.114152,198.20317,86.429733,11.2743,314.714,8.0648,24.0023,23.5896,23.4063
1981-07-14 03:09:26,1,-11.46,5.02,0.08,0.24,1,1,33578.1,32931.1,1710,0.63781869,6.1140738,198.19194,86.430222,11.6876,314.697,6.66077,23.8492,23.5443,23.3164
1981-07-14 03:10:47,1,-11.56,5.46,0.04,0.164924,1,1,28074.7,33487.0,1710,0.6378265,6.1139965,198.18071,86.43071,11.5927,315.088,7.94729,23.4018,21.5286,23.5124
1981-07-14 03:12:08,1,-11.46,5.42,-0.08,0.24,1,1,31676.6,30837.1,1710,0.63784224,6.1138411,198.16998,86.431702,11.8098,313.481,6.86625,23.1544,22.868,22.5629
1981-07-14 03:13:29,1,-11.66,4.84,0.2,0.144222,1,1,31829.7,31515.3,1710,0.63785011,6.1137629,198.15485,86.43219,11.7452,315.676,8.02271,23.9259,22.9231,22.8097
1981-07-14 03:14:50,1,-11.46,5.22,0.52,0.515364,1,1,41431.2,38214.4,1710,0.63785797,6.1136856,198.14362,86.432678,11.7593,311.2,9.31103,23.6754,26.153,25.1172
1981-07-14 03:16:11,1,-10.94,5.88,0.16,0.445421,1,1,40046.5,36932.7,1710,0.63787365,6.1135302,198.13289,86.43367,11.6559,308.965,7.08343,26.6976,25.7122,24.6924
1981-07-14 03:17:32,1,-11.34,5.36,0.8,0.262298,1,1,41774.3,36102.5,1710,0.63788152,6.1134529,198.12166,86.434158,11.4981,307.703,9.54604,24.2348,26.2611,24.4133
1981-07-14 03:18:53,1,-10.9,6.03333,0.666667,0.401386,1,1,36387.4,36761.0,1710,0.63788939,6.1133747,198.11043,86.434647,11.6217,310.143,10.7944,26.0351,24.5094,24.635
1981-07-14 03:20:14,1,-11.1667,5.73333,0.8,0.210819,1,1,35357.6,36218.2,1710,0.63790506,6.1132193,198.09579,86.435638,11.5456,311.909,9.38877,24.5326,24.1601,24.4524
1981-07-14 03:21:35,1,-11.1333,5.66667,0.133333,0.341565,1,1,32468.4,37363.4,1710,0.63791293,6.113142,198.08456,86.436127,10.9202,310.954,9.391,24.0243,23.152,24.836
1981-07-14 03:22:56,1,-11.4,5.3,-0.2,0.3,1,1,36190.9,36300.1,1710,0.6379208,6.1130638,198.07333,86.436615,11.4813,310.91,8.45528,22.3747,24.4432,24.48
1981-07-14 03:24:17,1,-10.9333,5.68333,-0.466667,0.25,1,1,33393.6,34272.9,1710,0.63793647,6.1129084,198.06261,86.437607,11.0686,308.461,9.08222,22.7874,23.4795,23.7866